カタログに戻る

STARLINK-4594

運用中通信VLEO
NORAD 53638·PAYLOAD·🇺🇸 United States

打ち上げ Aug 28, 2022 から Cape Canaveral Space Force Station

Loading…

次のパス (今後24時間)

TLE

最新Source: CelesTrak SupGP

元期: Sep 14, 2026, 22:17 UTC

1 53638C 22104BC  26257.92895833  .00039290  00000+0  11244-2 0  2576
2 53638  53.1587  87.7107 0001336  78.9427 266.3010 15.35370654    14

AllMySatでSTARLINK-4594をリアルタイム追跡

Download on the App Store